[keps] orb09106.amsat
Ray Hoad
r.hoad at att.net
Thu Apr 16 20:05:15 PDT 2009
SB KEPS @ AMSAT $ORB09106.O
Orbital Elements 09106.OSCAR
HR AMSAT ORBITAL ELEMENTS FOR OSCAR SATELLITES
FROM WA5QGD FORT WORTH,TX April 16, 2009
Send Subscribe/unsubscribe to KEPS at
http://www.amsat.org/mailman/listinfo/keps
BID: ORB09106.O
TO ALL RADIO AMATEURS BT
Satellite: AO-07
Catalog number: 07530
Epoch time: 09106.63785497
Element set: 453
Inclination: 101.4322 deg
RA of node: 133.5638 deg
Eccentricity: 0.0012120
Arg of perigee: 029.9979 deg
Mean anomaly: 330.1784 deg
Mean motion: 12.53575647 rev/day
Decay rate: -2.7e-07 rev/day^2
Epoch rev: 57500
Checksum: 301
Satellite: AO-10
Catalog number: 14129
Epoch time: 09106.05380253
Element set: 644
Inclination: 025.9422 deg
RA of node: 161.6537 deg
Eccentricity: 0.5990006
Arg of perigee: 214.6431 deg
Mean anomaly: 085.4045 deg
Mean motion: 02.05869145 rev/day
Decay rate: -2.15e-06 rev/day^2
Epoch rev: 19434
Checksum: 283
Satellite: UO-11
Catalog number: 14781
Epoch time: 09106.67876109
Element set: 938
Inclination: 098.1121 deg
RA of node: 150.5781 deg
Eccentricity: 0.0009012
Arg of perigee: 168.4763 deg
Mean anomaly: 191.6701 deg
Mean motion: 14.79704392 rev/day
Decay rate: -5.2e-07 rev/day^2
Epoch rev: 34873
Checksum: 314
Satellite: RS-15
Catalog number: 23439
Epoch time: 09105.89567860
Element set: 0199
Inclination: 064.8141 deg
RA of node: 005.5463 deg
Eccentricity: 0.0146995
Arg of perigee: 063.5561 deg
Mean anomaly: 298.0359 deg
Mean motion: 11.27553217 rev/day
Decay rate: -3.9e-07 rev/day^2
Epoch rev: 58909
Checksum: 342
Satellite: FO-29
Catalog number: 24278
Epoch time: 09106.77084656
Element set: 16
Inclination: 098.5624 deg
RA of node: 349.0395 deg
Eccentricity: 0.0351147
Arg of perigee: 149.4174 deg
Mean anomaly: 212.7960 deg
Mean motion: 13.52943084 rev/day
Decay rate: 1.9e-07 rev/day^2
Epoch rev: 62544
Checksum: 326
Satellite: SO-33
Catalog number: 25509
Epoch time: 09106.82636327
Element set: 432
Inclination: 031.4318 deg
RA of node: 039.4627 deg
Eccentricity: 0.0354471
Arg of perigee: 162.0611 deg
Mean anomaly: 199.2887 deg
Mean motion: 14.28251517 rev/day
Decay rate: 4.18e-06 rev/day^2
Epoch rev: 54705
Checksum: 305
Satellite: AO-40
Catalog number: 26609
Epoch time: 09105.66069202
Element set: 216
Inclination: 009.1977 deg
RA of node: 023.4368 deg
Eccentricity: 0.7962000
Arg of perigee: 194.9139 deg
Mean anomaly: 106.0662 deg
Mean motion: 01.25584647 rev/day
Decay rate: -3.56e-06 rev/day^2
Epoch rev: 3884
Checksum: 312
Satellite: RS-22
Catalog number: 27939
Epoch time: 09105.83696871
Element set: 0767
Inclination: 097.9529 deg
RA of node: 342.9469 deg
Eccentricity: 0.0013222
Arg of perigee: 334.0857 deg
Mean anomaly: 025.9684 deg
Mean motion: 14.63307866 rev/day
Decay rate: 6.3e-07 rev/day^2
Epoch rev: 29645
Checksum: 359
Satellite: VO-52
Catalog number: 28650
Epoch time: 09105.84807636
Element set: 202
Inclination: 097.7465 deg
RA of node: 169.4751 deg
Eccentricity: 0.0026153
Arg of perigee: 231.3891 deg
Mean anomaly: 128.4936 deg
Mean motion: 14.81570093 rev/day
Decay rate: -3.23e-06 rev/day^2
Epoch rev: 21341
Checksum: 305
Satellite: PO-63
Catalog number: 29712
Epoch time: 09106.78550690
Element set: 407
Inclination: 097.8342 deg
RA of node: 164.6467 deg
Eccentricity: 0.0015328
Arg of perigee: 112.5192 deg
Mean anomaly: 247.7642 deg
Mean motion: 14.80506949 rev/day
Decay rate: 5.50e-06 rev/day^2
Epoch rev: 12238
Checksum: 318
/EX
SB KEPS @ AMSAT $ORB09106.D
Orbital Elements 09106.MICROS
HR AMSAT ORBITAL ELEMENTS FOR THE MICROSATS
FROM WA5QGD FORT WORTH,TX April 16, 2009
Send Subscribe/unsubscribe to KEPS at
http://www.amsat.org/mailman/listinfo/keps
BID: ORB09106.D
TO ALL RADIO AMATEURS BT
Satellite: AO-16
Catalog number: 20439
Epoch time: 09106.42896332
Element set: 582
Inclination: 098.2739 deg
RA of node: 077.6601 deg
Eccentricity: 0.0011097
Arg of perigee: 000.0506 deg
Mean anomaly: 000.0694 deg
Mean motion: 14.31821005 rev/day
Decay rate: -6.0e-08 rev/day^2
Epoch rev: 431
Checksum: 258
Satellite: LO-19
Catalog number: 20442
Epoch time: 09105.79736543
Element set: 0503
Inclination: 098.2374 deg
RA of node: 084.5601 deg
Eccentricity: 0.0011943
Arg of perigee: 358.2949 deg
Mean anomaly: 001.8214 deg
Mean motion: 14.32057157 rev/day
Decay rate: -5.0e-08 rev/day^2
Epoch rev: 00438
Checksum: 288
Satellite: AO-27
Catalog number: 22825
Epoch time: 09105.84020445
Element set: 0223
Inclination: 098.4323 deg
RA of node: 061.2457 deg
Eccentricity: 0.0009364
Arg of perigee: 086.7531 deg
Mean anomaly: 273.4743 deg
Mean motion: 14.29262963 rev/day
Decay rate: 3.8e-07 rev/day^2
Epoch rev: 81100
Checksum: 289
Satellite: IO-26
Catalog number: 22826
Epoch time: 09106.75129463
Element set: 945
Inclination: 098.4248 deg
RA of node: 062.9027 deg
Eccentricity: 0.0009963
Arg of perigee: 081.6020 deg
Mean anomaly: 278.6291 deg
Mean motion: 14.29514489 rev/day
Decay rate: 7.0e-08 rev/day^2
Epoch rev: 81123
Checksum: 320
Satellite: GO-32
Catalog number: 25397
Epoch time: 09105.78114028
Element set: 869
Inclination: 098.3306 deg
RA of node: 131.4515 deg
Eccentricity: 0.0002212
Arg of perigee: 082.4939 deg
Mean anomaly: 277.6485 deg
Mean motion: 14.23156458 rev/day
Decay rate: -1.82e-06 rev/day^2
Epoch rev: 55925
Checksum: 317
Satellite: NO-44
Catalog number: 26931
Epoch time: 09105.73781128
Element set: 145
Inclination: 067.0525 deg
RA of node: 225.2285 deg
Eccentricity: 0.0005241
Arg of perigee: 267.4322 deg
Mean anomaly: 092.6169 deg
Mean motion: 14.29553169 rev/day
Decay rate: -2.3e-07 rev/day^2
Epoch rev: 39365
Checksum: 301
Satellite: SO-50
Catalog number: 27607
Epoch time: 09106.68010540
Element set: 862
Inclination: 064.5584 deg
RA of node: 211.8939 deg
Eccentricity: 0.0073951
Arg of perigee: 219.0903 deg
Mean anomaly: 140.4841 deg
Mean motion: 14.71428374 rev/day
Decay rate: 9.6e-07 rev/day^2
Epoch rev: 33962
Checksum: 309
Satellite: CO-55
Catalog number: 27844
Epoch time: 09105.66102611
Element set: 557
Inclination: 098.7149 deg
RA of node: 115.7080 deg
Eccentricity: 0.0009571
Arg of perigee: 329.8103 deg
Mean anomaly: 030.2512 deg
Mean motion: 14.20631573 rev/day
Decay rate: 2.4e-07 rev/day^2
Epoch rev: 30038
Checksum: 274
Satellite: CO-57
Catalog number: 27848
Epoch time: 09105.55941978
Element set: 0504
Inclination: 098.7169 deg
RA of node: 114.6700 deg
Eccentricity: 0.0009557
Arg of perigee: 333.4686 deg
Mean anomaly: 026.6005 deg
Mean motion: 14.20434598 rev/day
Decay rate: 1.9e-07 rev/day^2
Epoch rev: 30033
Checksum: 320
Satellite: AO-51
Catalog number: 28375
Epoch time: 09105.66391970
Element set: 364
Inclination: 098.0551 deg
RA of node: 118.9086 deg
Eccentricity: 0.0084159
Arg of perigee: 315.8041 deg
Mean anomaly: 043.6444 deg
Mean motion: 14.40638450 rev/day
Decay rate: 3.0e-08 rev/day^2
Epoch rev: 25195
Checksum: 307
Satellite: CO-56
Catalog number: 28941
Epoch time: 09106.70321107
Element set: 997
Inclination: 098.1382 deg
RA of node: 269.9530 deg
Eccentricity: 0.0101140
Arg of perigee: 003.9264 deg
Mean anomaly: 356.2758 deg
Mean motion: 15.78259332 rev/day
Decay rate: 5.1938e-04 rev/day^2
Epoch rev: 17753
Checksum: 331
Satellite: CP3
Catalog number: 31128
Epoch time: 09105.16835848
Element set: 0607
Inclination: 097.9926 deg
RA of node: 161.1500 deg
Eccentricity: 0.0103711
Arg of perigee: 120.3435 deg
Mean anomaly: 240.8117 deg
Mean motion: 14.52033178 rev/day
Decay rate: -4.6e-07 rev/day^2
Epoch rev: 10575
Checksum: 272
Satellite: CP4
Catalog number: 31132
Epoch time: 09105.71265469
Element set: 0593
Inclination: 098.0002 deg
RA of node: 165.3613 deg
Eccentricity: 0.0086844
Arg of perigee: 107.8714 deg
Mean anomaly: 253.1961 deg
Mean motion: 14.55197270 rev/day
Decay rate: -7.9e-07 rev/day^2
Epoch rev: 10594
Checksum: 302
Satellite: CO-65
Catalog number: 32785
Epoch time: 09106.73006716
Element set: 341
Inclination: 097.9512 deg
RA of node: 171.1897 deg
Eccentricity: 0.0013840
Arg of perigee: 229.9173 deg
Mean anomaly: 130.0825 deg
Mean motion: 14.81467809 rev/day
Decay rate: -3.8e-07 rev/day^2
Epoch rev: 5234
Checksum: 310
Satellite: SOHLA-1
Catalog number: 33496
Epoch time: 09106.82937867
Element set: 256
Inclination: 098.0321 deg
RA of node: 217.1146 deg
Eccentricity: 0.0007847
Arg of perigee: 114.2048 deg
Mean anomaly: 245.9973 deg
Mean motion: 14.69429387 rev/day
Decay rate: 4.7e-07 rev/day^2
Epoch rev: 1226
Checksum: 321
/EX
SB KEPS @ AMSAT $ORB09106.W
Orbital Elements 09106.WEATHER
HR AMSAT ORBITAL ELEMENTS FOR WEATHER SATELLITES
FROM WA5QGD FORT WORTH,TX April 16, 2009
Send Subscribe/unsubscribe to KEPS at
http://www.amsat.org/mailman/listinfo/keps
BID: ORB09106.W
TO ALL RADIO AMATEURS BT
Satellite: NOAA-10
Catalog number: 16969
Epoch time: 09106.47101086
Element set: 574
Inclination: 098.6957 deg
RA of node: 133.4403 deg
Eccentricity: 0.0012780
Arg of perigee: 020.8970 deg
Mean anomaly: 339.2731 deg
Mean motion: 14.27383964 rev/day
Decay rate: -3.3e-07 rev/day^2
Epoch rev: 17470
Checksum: 309
Satellite: NOAA-11
Catalog number: 19531
Epoch time: 09106.33067625
Element set: 588
Inclination: 098.7811 deg
RA of node: 197.2403 deg
Eccentricity: 0.0010861
Arg of perigee: 287.4148 deg
Mean anomaly: 072.5840 deg
Mean motion: 14.14891671 rev/day
Decay rate: -2.24e-06 rev/day^2
Epoch rev: 6077
Checksum: 307
Satellite: NOAA-12
Catalog number: 21263
Epoch time: 09106.55364312
Element set: 78
Inclination: 098.7744 deg
RA of node: 114.5847 deg
Eccentricity: 0.0012164
Arg of perigee: 329.9867 deg
Mean anomaly: 030.0615 deg
Mean motion: 14.25574159 rev/day
Decay rate: 2.9e-07 rev/day^2
Epoch rev: 93161
Checksum: 304
Satellite: MET-3/5
Catalog number: 21655
Epoch time: 09105.93052592
Element set: 0643
Inclination: 082.5474 deg
RA of node: 250.4702 deg
Eccentricity: 0.0013549
Arg of perigee: 341.6684 deg
Mean anomaly: 018.3941 deg
Mean motion: 13.17018740 rev/day
Decay rate: 5.1e-07 rev/day^2
Epoch rev: 84943
Checksum: 297
